Sigfox identifier Datetime Temperature Humidity SNR
002F1B31 2019-04-23 14:53:05 15.9 32 22.4
002F1B31 2019-04-23 14:19:28 15.9 32 22
002F1B31 2019-04-23 13:45:53 15.7 32 21.8
002F1B31 2019-04-23 13:12:17 15.7 32 21.9
002F1B31 2019-04-23 12:38:40 15.6 32 21.8
002F1B31 2019-04-23 12:05:05 15.5 31 21.5
002F1B31 2019-04-23 11:31:29 15.5 31 21
002F1B31 2019-04-23 10:57:52 15.5 31 20.7
002F1B31 2019-04-23 10:24:16 15.5 31 20.2
002F1B31 2019-04-23 09:50:40 15.5 31 20.1
002F1B31 2019-04-23 09:17:03 15.5 31 19.7
002F1B31 2019-04-23 08:43:26 15.5 31 18.8
002F1B31 2019-04-23 08:09:49 15.5 31 18.4
002F1B31 2019-04-23 07:36:11 15.5 31 18.5
002F1B31 2019-04-23 07:02:36 15.5 31 18.6
002F1B31 2019-04-23 05:55:23 15.5 31 18.5
002F1B31 2019-04-23 05:21:46 15.5 31 18.7
002F1B31 2019-04-23 04:48:10 15.5 31 18.7
002F1B31 2019-04-23 04:14:34 15.5 31 18.6
002F1B31 2019-04-23 03:40:58 15.5 31 18.7
002F1B31 2019-04-23 03:07:21 15.5 31 18.7
002F1B31 2019-04-23 02:33:46 15.5 31 18.7
002F1B31 2019-04-23 02:00:10 15.6 31 18.7
002F1B31 2019-04-23 01:26:35 15.6 31 18.6
002F1B31 2019-04-23 00:52:59 15.6 31 18.5
002F1B31 2019-04-23 00:19:24 15.7 31 18.4
002F1B31 2019-04-22 23:45:48 15.7 31 18.4
002F1B31 2019-04-22 23:12:11 15.7 31 18.3
002F1B31 2019-04-22 22:38:35 15.7 31 18.3
002F1B31 2019-04-22 22:05:00 15.7 31 18.2
002F1B31 2019-04-22 21:31:25 15.7 31 18.1
002F1B31 2019-04-22 20:57:49 15.7 31 18
002F1B31 2019-04-22 20:24:14 15.7 31 18
002F1B31 2019-04-22 19:50:36 15.7 31 18
002F1B31 2019-04-22 19:17:00 15.8 31 17.9
002F1B31 2019-04-22 18:43:24 15.7 31 17.7
002F1B31 2019-04-22 18:09:48 15.7 31 17.5
002F1B31 2019-04-22 17:36:11 15.7 31 17.5
002F1B31 2019-04-22 17:02:35 15.7 31 17.4
002F1B31 2019-04-22 16:29:00 15.7 31 17.4
002F1B31 2019-04-22 15:55:24 15.7 31 17.4
002F1B31 2019-04-22 15:21:48 15.7 31 17.4
002F1B31 2019-04-22 14:48:12 15.6 30 17.3
002F1B31 2019-04-22 14:14:36 15.6 30 17.4
002F1B31 2019-04-22 13:41:00 15.6 30 17.1
002F1B31 2019-04-22 13:07:22 15.5 30 17.3
002F1B31 2019-04-22 12:33:46 15.6 30 17.3
002F1B31 2019-04-22 12:00:09 15.5 30 17.4
002F1B31 2019-04-22 11:26:33 15.5 30 17.5
002F1B31 2019-04-22 10:52:56 15.5 30 17.6
002F1B31 2019-04-22 10:19:19 15.5 30 17.8
002F1B31 2019-04-22 09:45:42 15.5 30 17.8
002F1B31 2019-04-22 09:12:05 15.5 30 17.9
002F1B31 2019-04-22 08:38:28 15.5 30 18
002F1B31 2019-04-22 08:04:55 15.5 30 18.1
002F1B31 2019-04-22 07:31:14 15.5 30 18.3
002F1B31 2019-04-22 06:57:36 15.5 30 18.2
002F1B31 2019-04-22 06:23:59 15.5 30 18.2
002F1B31 2019-04-22 05:50:21 15.5 30 18.2
002F1B31 2019-04-22 05:16:47 15.5 30 18.3
002F1B31 2019-04-22 04:43:07 15.5 30 18.4
002F1B31 2019-04-22 04:09:31 15.5 30 18.4
002F1B31 2019-04-22 03:35:51 15.5 30 18.5
002F1B31 2019-04-22 03:02:14 15.5 30 18.6
002F1B31 2019-04-22 02:28:36 15.5 30 18.6
002F1B31 2019-04-22 01:54:59 15.5 30 18.6
002F1B31 2019-04-22 01:21:21 15.5 30 18.5
002F1B31 2019-04-22 00:47:45 15.5 30 18.6
002F1B31 2019-04-22 00:14:07 15.5 30 18.6
002F1B31 2019-04-21 23:40:30 15.4 30 18.6
002F1B31 2019-04-21 23:06:52 15.5 30 18.7
002F1B31 2019-04-21 22:33:15 15.5 30 18.7
002F1B31 2019-04-21 21:59:38 15.5 30 18.6
002F1B31 2019-04-21 21:26:02 15.5 30 18.5
002F1B31 2019-04-21 20:52:26 15.5 30 18.5
002F1B31 2019-04-21 20:18:50 15.5 30 18.5
002F1B31 2019-04-21 19:45:14 15.4 30 18.6
002F1B31 2019-04-21 19:11:39 15.4 30 18.5
002F1B31 2019-04-21 18:38:04 15.4 30 18.4
002F1B31 2019-04-21 18:04:28 15.3 30 18.4
002F1B31 2019-04-21 17:30:53 15.3 29 18.2
002F1B31 2019-04-21 16:57:19 15.3 29 18.2
002F1B31 2019-04-21 16:23:44 15.3 29 18.3
002F1B31 2019-04-21 15:50:07 15.3 29 18.3
002F1B31 2019-04-21 15:16:31 15.3 29 18.3
002F1B31 2019-04-21 14:42:55 15.3 29 18.4
002F1B31 2019-04-21 14:09:20 15.4 29 18.3
002F1B31 2019-04-21 13:35:44 15.3 29 18.4
002F1B31 2019-04-21 13:02:09 15.3 29 18.3
002F1B31 2019-04-21 12:28:33 15.4 29 18.2
002F1B31 2019-04-21 11:54:57 15.5 29 18.2
002F1B31 2019-04-21 11:21:21 15.5 29 18.2
002F1B31 2019-04-21 10:47:45 15.5 29 18.2
002F1B31 2019-04-21 10:14:10 15.5 29 18.1
002F1B31 2019-04-21 09:40:35 15.5 29 18.1
002F1B31 2019-04-21 09:07:02 15.5 29 18
002F1B31 2019-04-21 08:33:28 15.5 29 17.9
002F1B31 2019-04-21 07:59:54 15.5 29 17.9
002F1B31 2019-04-21 07:26:20 15.5 29 17.9
002F1B31 2019-04-21 06:52:45 15.5 29 17.9
002F1B31 2019-04-21 06:19:09 15.5 29 17.7
002F1B31 2019-04-21 05:45:34 15.5 29 17.7
002F1B31 2019-04-21 05:11:58 15.5 29 17.6
002F1B31 2019-04-21 04:38:23 15.5 29 17.6
002F1B31 2019-04-21 04:04:46 15.5 29 17.5
002F1B31 2019-04-21 03:31:10 15.5 29 17.5
002F1B31 2019-04-21 02:57:36 15.5 29 17.6
002F1B31 2019-04-21 02:24:00 15.5 29 17.6
002F1B31 2019-04-21 01:50:26 15.5 29 17.6
002F1B31 2019-04-21 01:16:51 15.5 29 17.7
002F1B31 2019-04-21 00:43:15 15.5 29 17.6
002F1B31 2019-04-21 00:09:39 15.5 29 17.7
002F1B31 2019-04-20 23:36:02 15.5 29 17.6
002F1B31 2019-04-20 23:02:25 15.5 29 17.7
002F1B31 2019-04-20 22:28:50 15.5 29 17.7
002F1B31 2019-04-20 21:55:14 15.5 29 17.6
002F1B31 2019-04-20 21:21:40 15.5 29 17.6
002F1B31 2019-04-20 20:48:06 15.5 28 17.7
002F1B31 2019-04-20 20:14:32 15.5 28 17.8
002F1B31 2019-04-20 19:40:57 15.5 28 17.9
002F1B31 2019-04-20 19:07:22 15.5 28 18
002F1B31 2019-04-20 18:33:48 15.5 28 18.1
002F1B31 2019-04-20 18:00:14 15.5 28 18.1
002F1B31 2019-04-20 17:26:39 15.5 28 18.2
002F1B31 2019-04-20 16:53:05 15.5 28 18.2
002F1B31 2019-04-20 16:19:29 15.5 28 18.2
002F1B31 2019-04-20 15:45:55 15.5 28 18.1
002F1B31 2019-04-20 15:12:20 15.5 28 18.1
002F1B31 2019-04-20 14:38:45 15.5 28 18.1
002F1B31 2019-04-20 14:05:10 15.5 28 18
002F1B31 2019-04-20 13:31:35 15.5 28 18.1
002F1B31 2019-04-20 12:57:58 15.5 28 18.1
002F1B31 2019-04-20 12:24:23 15.5 28 18
002F1B31 2019-04-20 11:50:49 15.5 28 18
002F1B31 2019-04-20 11:17:13 15.5 28 18
002F1B31 2019-04-20 10:43:37 15.5 28 18.1
002F1B31 2019-04-20 10:09:59 15.6 28 18.1
002F1B31 2019-04-20 09:36:23 15.5 28 18
002F1B31 2019-04-20 09:02:45 15.7 28 18
002F1B31 2019-04-20 08:29:09 15.7 28 18.1
002F1B31 2019-04-20 07:55:32 15.7 28 18.2
002F1B31 2019-04-20 07:21:55 15.7 28 18.3
002F1B31 2019-04-20 06:48:19 15.7 28 18.1
002F1B31 2019-04-20 06:14:43 15.7 28 18.1
002F1B31 2019-04-20 05:41:07 15.7 28 18
002F1B31 2019-04-20 05:07:32 15.7 28 17.8
002F1B31 2019-04-20 04:33:55 15.7 28 17.7
002F1B31 2019-04-20 04:00:19 15.7 28 17.6
002F1B31 2019-04-20 03:26:44 15.7 28 17.5
002F1B31 2019-04-20 02:53:08 15.8 28 17.5
002F1B31 2019-04-20 02:19:33 15.9 28 17.4
002F1B31 2019-04-20 01:45:58 15.9 27 17.5
002F1B31 2019-04-20 01:12:23 15.9 27 17.5
002F1B31 2019-04-20 00:38:48 15.9 28 17.4
002F1B31 2019-04-20 00:05:14 15.9 27 17.4
002F1B31 2019-04-19 23:31:39 15.9 27 17.3
002F1B31 2019-04-19 22:58:05 15.9 27 17.3
002F1B31 2019-04-19 22:24:31 15.9 27 17.3
002F1B31 2019-04-19 21:50:55 15.9 27 17.2
002F1B31 2019-04-19 21:17:20 16 27 17.1
002F1B31 2019-04-19 20:43:46 16 27 17
002F1B31 2019-04-19 20:10:11 15.9 27 17
002F1B31 2019-04-19 19:36:37 16 27 17.1
002F1B31 2019-04-19 19:03:01 15.9 27 17.1
002F1B31 2019-04-19 18:29:26 15.9 27 16.9
002F1B31 2019-04-19 17:55:51 15.9 27 16.7
002F1B31 2019-04-19 17:22:16 15.9 27 16.6
002F1B31 2019-04-19 16:48:42 15.9 27 16.8
002F1B31 2019-04-19 16:15:07 15.9 27 16.7
002F1B31 2019-04-19 15:41:32 15.9 27 16.8
002F1B31 2019-04-19 15:07:55 15.9 27 17.1
002F1B31 2019-04-19 14:34:19 15.8 27 17.3
002F1B31 2019-04-19 14:00:44 15.8 27 17.2
002F1B31 2019-04-19 13:27:08 15.7 27 17.3
002F1B31 2019-04-19 12:53:35 15.7 27 17.4
002F1B31 2019-04-19 12:19:59 15.7 27 17.4
002F1B31 2019-04-19 11:46:24 15.7 27 17.5
002F1B31 2019-04-19 11:12:49 15.7 27 17.7
002F1B31 2019-04-19 10:39:17 15.7 27 17.9
002F1B31 2019-04-19 10:05:39 15.7 27 18.1
002F1B31 2019-04-19 09:32:03 15.7 27 18.4
002F1B31 2019-04-19 08:58:29 15.7 27 18.6
002F1B31 2019-04-19 08:24:53 15.7 26 18.8
002F1B31 2019-04-19 07:51:18 15.9 26 18.7
002F1B31 2019-04-19 07:17:43 15.9 26 18.8
002F1B31 2019-04-19 06:44:08 15.9 26 18.8
002F1B31 2019-04-19 06:10:32 15.9 26 18.9
002F1B31 2019-04-19 05:36:57 15.9 26 19.7
002F1B31 2019-04-19 05:03:21 15.9 26 19.9
002F1B31 2019-04-19 04:29:46 15.9 26 20.6
002F1B31 2019-04-19 03:56:12 16 26 20.9
002F1B31 2019-04-19 03:22:37 16.1 26 21
002F1B31 2019-04-19 02:49:02 16.1 26 20.9
002F1B31 2019-04-19 02:15:28 16.1 26 21.1
002F1B31 2019-04-19 01:41:52 16.2 26 21.7
002F1B31 2019-04-19 01:08:16 16.3 26 22.1
002F1B31 2019-04-19 00:34:41 16.3 26 22.6
002F1B31 2019-04-19 00:01:05 16.4 26 23.1
002F1B31 2019-04-18 23:27:30 16.3 26 23.3
002F1B31 2019-04-18 22:53:54 16.4 26 23.8
002F1B31 2019-04-18 22:20:19 16.5 26 24
002F1B31 2019-04-18 21:46:42 16.5 26 24
002F1B31 2019-04-18 21:13:06 16.5 26 24
002F1B31 2019-04-18 20:39:31 16.5 26 24
002F1B31 2019-04-18 20:05:55 16.5 26 24
002F1B31 2019-04-18 19:32:19 16.4 26 24
002F1B31 2019-04-18 18:58:42 16.4 26 24
002F1B31 2019-04-18 18:25:06 16.4 26 24
002F1B31 2019-04-18 17:51:30 16.3 26 24
002F1B31 2019-04-18 17:17:55 16.3 26 24.1
002F1B31 2019-04-18 16:44:19 16.3 26 24.1
002F1B31 2019-04-18 16:10:43 16.3 26 24.1
002F1B31 2019-04-18 15:37:07 16.2 26 23.8
002F1B31 2019-04-18 15:03:31 16.1 26 23.8
002F1B31 2019-04-18 14:29:54 16.1 26 23.5
002F1B31 2019-04-18 13:56:19 16.1 25 23.4
002F1B31 2019-04-18 13:22:44 16.1 25 24.1
002F1B31 2019-04-18 12:49:09 16.1 25 24.1
002F1B31 2019-04-18 12:15:33 16.1 25 24.1
002F1B31 2019-04-18 11:41:57 16.1 25 23.7
002F1B31 2019-04-18 11:08:22 16.1 25 23.4
002F1B31 2019-04-18 10:34:46 16.1 25 23
002F1B31 2019-04-18 10:01:11 16.1 25 22.4
002F1B31 2019-04-18 09:27:35 16.1 25 22.1
002F1B31 2019-04-18 08:53:59 16.1 25 21.3
002F1B31 2019-04-18 08:20:22 16.1 25 21
002F1B31 2019-04-18 07:46:47 16.2 25 21
002F1B31 2019-04-18 07:13:12 16.1 25 21
002F1B31 2019-04-18 06:39:36 16.1 25 20.9
002F1B31 2019-04-18 06:06:01 16.1 25 21.8
002F1B31 2019-04-18 05:32:25 16.1 25 22.3
002F1B31 2019-04-18 04:58:50 16.1 25 22.3
002F1B31 2019-04-18 04:25:14 16.2 25 22.6
002F1B31 2019-04-18 03:51:39 16.3 25 22.5
002F1B31 2019-04-18 03:18:04 16.3 24 22.4
002F1B31 2019-04-18 02:44:29 16.3 24 22.4
002F1B31 2019-04-18 02:10:53 16.3 24 22.3
002F1B31 2019-04-18 01:37:18 16.5 24 22.3
002F1B31 2019-04-18 01:03:42 16.5 24 22.3
002F1B31 2019-04-18 00:30:06 16.5 24 23.1
002F1B31 2019-04-17 23:56:31 16.5 24 23.2
002F1B31 2019-04-17 23:22:55 16.5 24 22.3
002F1B31 2019-04-17 22:49:19 16.6 24 22.3
002F1B31 2019-04-17 22:15:44 16.5 24 22.2
002F1B31 2019-04-17 21:42:09 16.5 24 22.3
002F1B31 2019-04-17 21:08:34 16.5 24 22.4
002F1B31 2019-04-17 20:34:59 16.5 24 22.4
002F1B31 2019-04-17 20:01:23 16.5 24 22.5
002F1B31 2019-04-17 19:27:49 16.5 24 22.6
002F1B31 2019-04-17 18:54:14 16.5 24 22.6
002F1B31 2019-04-17 18:20:39 16.5 24 22.8
002F1B31 2019-04-17 17:47:03 16.5 24 22.8
002F1B31 2019-04-17 17:13:29 16.5 23 22.8
002F1B31 2019-04-17 16:39:54 16.5 23 23
002F1B31 2019-04-17 16:06:19 16.5 23 22.4
002F1B31 2019-04-17 15:32:44 16.5 23 21.7
002F1B31 2019-04-17 14:59:08 16.8 23 21.8
002F1B31 2019-04-17 14:25:33 16.8 23 21.5
002F1B31 2019-04-17 13:51:57 16.8 23 21.7
002F1B31 2019-04-17 13:18:21 16.8 23 21.8
002F1B31 2019-04-17 12:44:45 16.8 23 21.8
002F1B31 2019-04-17 12:11:10 16.8 23 21.7
002F1B31 2019-04-17 11:37:34 16.8 23 21.6
002F1B31 2019-04-17 11:03:59 16.9 23 21.6
002F1B31 2019-04-17 10:30:24 17 23 20.2
002F1B31 2019-04-17 09:56:49 17 22 20
002F1B31 2019-04-17 09:23:13 17.2 22 20
002F1B31 2019-04-17 08:49:37 17.3 22 19.9
002F1B31 2019-04-17 08:16:02 17.4 22 19.9
002F1B31 2019-04-17 07:42:25 17.6 22 20
002F1B31 2019-04-17 07:08:51 17.6 22 20.2
002F1B31 2019-04-17 06:35:17 17.8 22 20.2
002F1B31 2019-04-17 06:01:41 17.9 23 20.1
002F1B31 2019-04-17 05:28:06 17.8 22 19.9
002F1B31 2019-04-17 04:54:31 17.9 22 19.9
002F1B31 2019-04-17 04:20:56 17.9 22 19.4
002F1B31 2019-04-17 03:47:20 18 22 19.3
002F1B31 2019-04-17 03:13:44 18 22 19.4
002F1B31 2019-04-17 02:40:08 18 22 18.9
002F1B31 2019-04-17 02:06:32 18 22 18.7
002F1B31 2019-04-17 01:32:56 18 22 18.5
002F1B31 2019-04-17 00:59:21 18 22 18
002F1B31 2019-04-17 00:25:46 18.2 22 17.8
002F1B31 2019-04-16 23:52:10 18.2 22 17.3
002F1B31 2019-04-16 23:18:35 18.3 21 17.2
002F1B31 2019-04-16 22:45:00 18.5 21 17.2
002F1B31 2019-04-16 22:11:25 18.7 21 17.7
002F1B31 2019-04-16 21:37:48 18.9 22 18.3
002F1B31 2019-04-16 21:04:12 19.1 22 18.6
002F1B31 2019-04-16 20:30:35 19.1 22 19
002F1B31 2019-04-16 19:57:00 19.2 22 19.1
002F1B31 2019-04-16 19:23:24 19.3 22 19.1
002F1B31 2019-04-16 18:49:48 19.3 22 19.2
002F1B31 2019-04-16 18:16:11 19.5 21 19.3
002F1B31 2019-04-16 17:42:35 19.8 21 19.3
002F1B31 2019-04-16 16:01:45 20.2 21 18.6
002F1B31 2019-04-16 15:28:09 20.4 21 18.6
002F1B31 2019-04-16 14:54:32 20.6 22 18.9
002F1B31 2019-04-16 14:20:56 20.9 22 18.9
002F1B31 2019-04-16 13:47:19 21 23 18.9
002F1B31 2019-04-16 13:13:41 20.9 23 19.1
002F1B31 2019-04-16 12:40:05 20.9 23 19.2
002F1B31 2019-04-16 12:06:28 20.8 23 19
002F1B31 2019-04-16 11:32:52 20.8 23 19.1
002F1B31 2019-04-16 10:59:15 20.6 22 19.3
002F1B31 2019-04-16 10:25:37 20.7 22 19.8
002F1B31 2019-04-16 09:52:00 20.7 22 19.7
002F1B31 2019-04-16 09:18:23 20.6 22 20
002F1B31 2019-04-16 08:44:47 20.6 22 20.3
002F1B31 2019-04-16 08:11:12 20.6 22 20.2
002F1B31 2019-04-16 07:37:36 20.6 22 20.1
002F1B31 2019-04-16 07:03:57 20.7 22 19.7
002F1B31 2019-04-16 06:30:20 20.7 22 19.3
002F1B31 2019-04-16 05:56:43 20.9 22 19.4
002F1B31 2019-04-16 05:23:07 20.7 22 19.1
002F1B31 2019-04-16 04:49:30 20.8 22 19.5
002F1B31 2019-04-16 04:15:54 20.8 22 19.5
002F1B31 2019-04-16 03:42:17 20.9 21 19.4
002F1B31 2019-04-16 03:08:40 20.8 21 19.4
002F1B31 2019-04-16 02:35:03 20.9 21 19.1
002F1B31 2019-04-16 02:01:26 20.9 21 19.3
002F1B31 2019-04-16 01:27:48 20.9 21 20.4
002F1B31 2019-04-16 00:54:13 20.9 21 20.7
002F1B31 2019-04-16 00:20:35 20.9 21 21.2
002F1B31 2019-04-15 23:46:57 20.8 21 21.9
002F1B31 2019-04-15 23:13:18 20.9 21 22.2
002F1B31 2019-04-15 22:39:41 20.8 20 22.5
002F1B31 2019-04-15 22:06:02 20.9 20 22.9
002F1B31 2019-04-15 21:32:24 20.9 20 23.7
002F1B31 2019-04-15 20:58:48 21.1 20 23.7
002F1B31 2019-04-15 20:25:10 21 20 23.8
002F1B31 2019-04-15 19:51:33 21 20 23.9
002F1B31 2019-04-15 19:17:53 21.1 20 23.8
002F1B31 2019-04-15 18:44:14 21.1 19 24.1
002F1B31 2019-04-15 18:10:35 21.3 19 24.2
002F1B31 2019-04-15 17:36:57 21.3 19 24.5
002F1B31 2019-04-15 17:03:19 21.3 19 25.1
002F1B31 2019-04-15 16:29:42 21.5 19 25.5
002F1B31 2019-04-15 15:56:06 21.5 19 25.5
002F1B31 2019-04-15 15:22:25 21.7 19 25.7
002F1B31 2019-04-15 14:48:49 21.8 18 25.8
002F1B31 2019-04-15 14:15:10 21.9 18 26.3
002F1B31 2019-04-15 13:41:37 22.1 18 26.5
002F1B31 2019-04-15 13:07:56 22.2 18 26.8
002F1B31 2019-04-15 12:34:19 22.4 18 27.1
002F1B31 2019-04-15 12:00:42 22.6 17 27.2
002F1B31 2019-04-15 11:27:04 22.4 16 27.1
002F1B31 2019-04-15 10:53:27 22.4 16 27.2
002F1B31 2019-04-15 10:19:49 22.4 16 27.2
002F1B31 2019-04-15 09:46:11 22.3 17 27.1
002F1B31 2019-04-15 09:12:33 22.2 17 27.2
002F1B31 2019-04-15 08:38:55 22.2 17 27.4
002F1B31 2019-04-15 08:05:17 22.1 16 27.5
002F1B31 2019-04-15 07:31:41 21.9 17 27.3
002F1B31 2019-04-15 06:58:03 21.9 17 27.4
002F1B31 2019-04-15 06:24:25 21.9 17 27.6
002F1B31 2019-04-15 05:50:48 21.9 17 27.7
002F1B31 2019-04-15 05:17:09 21.9 17 27.8
002F1B31 2019-04-15 04:43:33 21.9 17 27.8
002F1B31 2019-04-15 04:09:58 21.9 17 27.8
002F1B31 2019-04-15 03:36:21 21.9 17 27.9
002F1B31 2019-04-15 03:02:44 21.9 17 27.8
002F1B31 2019-04-15 02:29:07 21.9 17 27.8
002F1B31 2019-04-15 01:55:29 21.9 17 27.9
002F1B31 2019-04-15 01:21:52 21.9 17 28.1
002F1B31 2019-04-15 00:48:15 22 17 28
002F1B31 2019-04-15 00:14:38 21.9 17 28
002F1B31 2019-04-14 23:41:01 21.9 18 28
002F1B31 2019-04-14 23:07:23 21.9 18 27.8
002F1B31 2019-04-14 22:33:46 22 18 27.7
002F1B31 2019-04-14 22:00:07 21.9 18 27.8
002F1B31 2019-04-14 21:26:29 22.1 18 27.8
002F1B31 2019-04-14 20:52:52 22.1 18 27.9
002F1B31 2019-04-14 20:19:15 22.1 18 28
002F1B31 2019-04-14 19:45:38 22.1 18 28.1
002F1B31 2019-04-14 19:12:01 22.1 18 28
002F1B31 2019-04-14 18:38:24 22.1 18 27.8
002F1B31 2019-04-14 18:04:48 22 18 27.8
002F1B31 2019-04-14 17:31:10 21.9 18 28
002F1B31 2019-04-14 16:57:34 22 18 27.9
002F1B31 2019-04-14 16:23:57 21.9 18 27.7
002F1B31 2019-04-14 15:50:21 21.9 18 27.6
002F1B31 2019-04-14 15:16:45 21.9 18 27.8
002F1B31 2019-04-14 14:43:08 22 18 27.8
002F1B31 2019-04-14 14:09:31 22.1 18 27.9
002F1B31 2019-04-14 13:35:55 22 18 27.8
002F1B31 2019-04-14 13:02:18 22.1 18 27.7
002F1B31 2019-04-14 12:28:42 22.1 18 27.7
002F1B31 2019-04-14 11:55:06 22 18 27.7
002F1B31 2019-04-14 11:21:29 22 18 27.6
002F1B31 2019-04-14 10:47:52 22 18 27.5
002F1B31 2019-04-14 10:14:15 22 18 27.4
002F1B31 2019-04-14 09:40:38 22 18 27.4
002F1B31 2019-04-14 09:07:01 22 18 27.5
002F1B31 2019-04-14 08:33:25 21.9 18 27.3
002F1B31 2019-04-14 07:59:48 22 18 27.5
002F1B31 2019-04-14 07:26:11 22 18 27.6
002F1B31 2019-04-14 06:52:35 22 18 27.4
002F1B31 2019-04-14 06:18:58 21.9 18 27.3
002F1B31 2019-04-14 05:45:22 21.9 18 27.3
002F1B31 2019-04-14 05:11:46 22 18 27.3
002F1B31 2019-04-14 04:38:10 22 18 27.3
002F1B31 2019-04-14 04:04:34 22 18 27.1
002F1B31 2019-04-14 03:30:57 22 18 27
002F1B31 2019-04-14 02:57:21 22.1 18 27.2
002F1B31 2019-04-14 02:23:44 22.1 18 27.3
002F1B31 2019-04-14 01:50:08 22.2 18 27.3
002F1B31 2019-04-14 01:16:31 22.1 18 27.2
002F1B31 2019-04-14 00:42:54 22.1 18 27
002F1B31 2019-04-14 00:09:16 22.1 18 27
002F1B31 2019-04-13 23:35:39 22.1 18 27.1
002F1B31 2019-04-13 23:02:01 22.1 18 27
002F1B31 2019-04-13 22:28:23 22.2 18 26.9
002F1B31 2019-04-13 21:54:45 22.2 18 26.9
002F1B31 2019-04-13 21:21:09 22.2 18 26.8
002F1B31 2019-04-13 20:47:30 22.2 17 26.9
002F1B31 2019-04-13 20:13:54 22.2 18 26.9
002F1B31 2019-04-13 19:40:18 22.3 18 26.9
002F1B31 2019-04-13 19:06:41 22.2 18 26.9
002F1B31 2019-04-13 18:33:05 22.3 18 27
002F1B31 2019-04-13 17:59:28 22.3 18 26.9
002F1B31 2019-04-13 17:25:51 22.3 18 26.9
002F1B31 2019-04-13 16:52:14 22.3 18 27.1
002F1B31 2019-04-13 16:18:38 22.3 18 27.1
002F1B31 2019-04-13 15:45:00 22.3 18 27.2
002F1B31 2019-04-13 15:11:24 22.3 18 27.3
002F1B31 2019-04-13 14:37:48 22.3 18 27.3
002F1B31 2019-04-13 14:04:11 22.4 18 27.4
002F1B31 2019-04-13 13:30:34 22.4 18 27.3
002F1B31 2019-04-13 12:56:56 22.3 18 27.1
002F1B31 2019-04-13 12:23:18 22.4 18 27.2
002F1B31 2019-04-13 11:49:40 22.4 18 27.4
002F1B31 2019-04-13 11:16:02 22.4 18 27.4
002F1B31 2019-04-13 10:42:24 22.3 18 27.4
002F1B31 2019-04-13 10:08:46 22.3 18 27.5
002F1B31 2019-04-13 09:35:09 22.4 18 27.4
002F1B31 2019-04-13 09:01:30 22.4 18 27.6
002F1B31 2019-04-13 08:27:54 22.3 18 27.6
002F1B31 2019-04-13 07:54:18 22.4 18 27.7
002F1B31 2019-04-13 07:20:40 22.4 18 27.9
002F1B31 2019-04-13 06:47:03 22.3 18 28
002F1B31 2019-04-13 06:13:26 22.3 18 28
002F1B31 2019-04-13 05:39:49 22.3 18 28
002F1B31 2019-04-13 05:06:11 22.4 18 28
002F1B31 2019-04-13 04:32:33 22.4 18 28.1
002F1B31 2019-04-13 03:58:55 22.6 18 28.2
002F1B31 2019-04-13 03:25:17 22.5 18 28.2
002F1B31 2019-04-13 02:51:40 22.6 18 28
002F1B31 2019-04-13 02:18:02 22.5 18 28
002F1B31 2019-04-13 01:44:25 22.6 18 27.9
002F1B31 2019-04-13 01:10:45 22.6 18 27.8
002F1B31 2019-04-13 00:37:07 22.7 19 27.9
002F1B31 2019-04-13 00:03:27 22.7 19 28
002F1B31 2019-04-12 23:29:49 22.8 19 28.1
002F1B31 2019-04-12 22:56:10 22.8 19 28.2
002F1B31 2019-04-12 22:22:29 22.7 19 28.2
002F1B31 2019-04-12 21:48:50 22.9 19 28.1
002F1B31 2019-04-12 21:15:09 22.9 19 28.2
002F1B31 2019-04-12 20:41:30 23 19 28.4
002F1B31 2019-04-12 20:07:50 23 19 28.2
002F1B31 2019-04-12 19:34:10 23 19 28.3
002F1B31 2019-04-12 19:00:30 23 18 28.1
002F1B31 2019-04-12 18:26:51 23.2 18 28.3
002F1B31 2019-04-12 17:53:10 23.2 18 28.3
002F1B31 2019-04-12 17:19:31 23.2 19 28.1
002F1B31 2019-04-12 16:45:52 23.2 19 27.7
002F1B31 2019-04-12 16:12:13 23 18 27.9
002F1B31 2019-04-12 15:38:35 23 19 28.2
002F1B31 2019-04-12 15:04:56 22.8 20 28.1
002F1B31 2019-04-12 14:31:18 22.5 21 27.2
002F1B31 2019-04-12 13:57:39 22.1 21 24.6
002F1B31 2019-04-12 13:24:00 21.5 23 13.7